CYBWCYRV

Guest
Details From CYBW - Calgary Springbank
To CYRV - REVELSTOKE
Flight Number -
Tags generated
Created
Modified
Stats Distance 145 nm / 268 km
Max Altitude 14,700 ft / 4,481 m
Waypoints 4
Social Downloads 0
Likes 0
Share VATSIM

Download

Looking for another format? Having issues loading an existing format? Contact us
Advertisement - Login to hide

Notes

Basic altitude profile: - Ascent Rate: 1000ft/min - Ascent Speed: 80kts - Cruise Altitude: 85ft - Cruise Speed: 120kts - Descent Rate: 1000ft/min - Descent Speed: 100kts Options: - Use NATs: yes - Use PACOTS: yes - Use low airways: yes - Use high airways: no

Route

CYBW CANOP V304 SPRAE CYRV

ID Type Via Altitude Latitude Longitude Leg Dist Tot Dist Heading (true) Name
O CYBW APT - 0 ft / 0 m 51.11176˚ -114.37654˚ - 0 nm - Calgary Springbank
CANOP FIX - 3,000 ft / 914 m 51.06778˚ -114.59139˚ 8 nm 8 nm 252° / 252° -
SPRAE FIX V304 (AWY-LO) 14,700 ft / 4,481 m 51.00361˚ -115.45667˚ 32 nm 41 nm 264° / 263° -
O CYRV APT - 0 ft / 0 m 50.96667˚ -118.18333˚ 103 nm 144 nm 270° / 268° REVELSTOKE

Altitude Profile

Advertisement - Login to hide

CYBW

Details ICAO CYBW (YBW)
Name Calgary Springbank
Region Canada
Timezone America/Edmonton (UTC-6.0)
Stats Elevation 3,937 ft / 1,200 m (AMSL)
Location 51.111765° -114.376537°
Runways 2
Magnetic Variation 14.172° E

METAR

CYBW 212300Z AUTO 19003KT 100V240 9SM CLR 22/04 A2991 RMK SLP132 DENSITY ALT 5600FT

Decode

TAF

TAF AMD TAF AMD CYBW 211742Z 2118/2204 01008KT P6SM FEW060 FM211900 03008KT P6SM SCT070 PROB30 2121/2201 VRB20G30KT P6SM -TSRA BKN070CB FM220200 10008KT P6SM SKC RMK FCST BASED ON AUTO OBS. NXT FCST BY 220000Z

Decode

Departure Runways

ID Width Length Bearing (true) Bearing (mag) Surface Threshold Offset Overrun Length
07 100 ft / 30 m 3,389 ft / 1,033 m 89.99° 75.82° Asphalt 0 ft / 0 m 0 ft / 0 m
16 75 ft / 23 m 3,083 ft / 940 m 180.71° 166.54° Asphalt 0 ft / 0 m 0 ft / 0 m
25 100 ft / 30 m 3,389 ft / 1,033 m 270.01° 255.84° Asphalt 0 ft / 0 m 0 ft / 0 m
34 75 ft / 23 m 3,083 ft / 940 m 0.71° 346.54° Asphalt 0 ft / 0 m 0 ft / 0 m

CYRV

Details ICAO CYRV (YRV)
Name REVELSTOKE
Region Canada
Timezone America/Vancouver (UTC-7.0)
Stats Elevation 1,459 ft / 445 m (AMSL)
Location 50.966665° -118.183335°
Runways 1
Magnetic Variation 15.470° E

METAR

CYRV 212300Z AUTO VRB03KT 9SM CLR 26/05 A2987 RMK SLP117 DENSITY ALT 3100FT

Decode

TAF

Not found

Destination Runways

ID Width Length Bearing (true) Bearing (mag) Surface Threshold Offset Overrun Length
12 75 ft / 23 m 4,793 ft / 1,461 m 137.62° 122.15° Asphalt 0 ft / 0 m 0 ft / 0 m
30 75 ft / 23 m 4,793 ft / 1,461 m 317.63° 302.16° Asphalt 300 ft / 91 m 0 ft / 0 m

Popular Alternatives